RH
41 43 42 37 34 29 32 30 36 36 34 34 36 37 37 37 36 34 31 30 28 24 23 23 27 25 22 17 14 13 12 11 11 11 11 12 13 14 14 15 16 18 23
42 49 45 44 40 34 31 35 39 36 34 32 33 34 35 36 35 32 29 26 24 22 21 23 30 24 21 17 16 12 10 11 12 13 13 13 13 14 14 14 15 15 16
46 48 46 47 44 39 37 38 40 38 35 34 33 32 33 32 29 25 23 22 21 19 17 25 28 29 23 21 17 11 12 13 14 15 15 14 13 13 14 14 13 13 13
47 48 48 44 45 43 40 39 39 39 38 36 31 29 29 27 24 23 20 22 24 22 21 26 37 33 25 22 15 13 14 15 16 17 19 19 18 18 15 16 19 23 26
49 47 48 45 45 44 41 39 39 38 37 35 34 31 27 26 24 21 29 30 28 24 23 33 38 31 25 21 13 15 17 18 19 20 21 24 27 34 33 31 30 30 31
47 47 48 46 44 43 40 39 40 40 36 36 35 33 30 27 24 23 31 30 31 29 35 39 37 33 31 26 26 30 33 33 33 34 34 36 40 42 46 47 44 46 47
46 46 46 44 41 41 41 41 41 40 37 37 37 34 30 26 26 25 25 31 30 29 30 32 32 32 30 25 29 33 34 36 37 37 37 39 42 43 44 39 40 42 43
45 44 45 42 40 39 40 44 43 39 39 39 38 33 30 28 28 28 28 29 30 31 32 32 33 33 28 30 34 37 38 40 41 40 39 40 44 40 38 37 37 39 38
41 45 44 41 38 36 38 40 42 38 39 41 38 32 31 29 29 28 29 31 31 32 34 33 32 31 32 34 37 39 42 44 44 44 43 41 39 38 38 40 40 38 36
38 39 43 39 37 36 37 39 38 36 34 36 33 32 33 33 32 31 30 30 32 34 35 36 38 41 42 42 44 46 49 49 49 47 44 43 41 41 38 37 37 36 34
36 38 40 39 39 38 39 40 39 37 35 35 33 33 34 34 35 34 34 34 32 33 34 37 40 43 45 48 50 52 53 54 52 48 44 42 41 42 38 36 34 32 31
32 35 38 41 44 46 43 41 40 35 35 36 35 34 35 35 36 38 38 39 39 37 37 39 41 45 47 50 53 55 56 56 55 50 47 45 46 43 37 36 34 33 32
32 30 32 37 44 49 48 43 40 36 36 38 37 35 37 40 40 39 40 42 44 44 42 42 44 48 51 52 52 52 53 56 53 49 46 45 47 44 38 35 34 34 32
29 31 33 36 39 45 47 45 41 39 39 39 38 36 37 40 42 43 42 43 46 47 47 47 48 50 53 54 54 54 54 53 47 43 44 43 42 42 40 36 34 33 31
29 30 32 34 35 39 41 40 41 42 40 38 34 32 36 39 42 44 45 45 48 50 51 50 52 54 56 56 56 53 52 50 40 40 42 43 43 42 40 38 37 34 33
32 30 31 31 33 39 41 40 39 42 42 36 33 34 36 38 41 43 45 46 50 51 51 51 54 56 58 61 60 56 55 49 42 39 39 38 37 37 42 43 39 37 36
34 33 32 34 36 39 40 44 44 41 40 42 43 40 38 39 41 44 44 48 51 53 53 55 58 61 64 64 62 60 59 50 49 48 47 47 47 46 44 44 43 42 42
38 36 38 40 41 44 42 43 45 47 46 46 49 48 44 41 42 44 48 52 51 52 54 57 60 63 63 62 62 63 56 53 56 55 53 49 47 48 48 49 51 50 48
32 35 38 43 41 44 43 43 50 53 53 52 53 53 51 47 43 44 48 52 52 53 56 58 60 61 61 61 65 64 55 59 59 56 53 50 49 52 52 54 53 51 54
29 30 31 34 35 32 41 48 51 54 54 59 58 57 57 51 49 47 49 52 52 52 55 58 60 61 60 62 65 64 57 57 56 55 54 55 55 56 54 52 53 54 52
28 29 30 31 32 33 32 33 37 39 45 53 59 62 60 58 56 57 55 56 59 59 56 60 62 61 62 65 67 67 62 59 60 60 59 59 59 58 56 55 54 54 51
23 25 28 29 31 32 32 32 33 34 37 41 54 65 66 67 65 63 65 65 65 63 62 65 68 68 69 70 69 72 67 66 65 63 60 62 61 59 55 51 49 47 45
19 20 22 25 28 29 31 31 33 33 33 37 43 56 64 68 74 74 71 69 70 71 72 75 77 79 80 84 84 78 74 69 66 62 62 62 63 60 54 51 49 50 50
19 20 21 23 23 23 25 27 30 33 34 35 39 42 51 59 68 74 74 75 76 77 78 80 82 87 91 94 94 88 80 80 67 60 62 64 62 59 57 54 53 53 52
20 20 21 23 24 25 25 25 27 29 31 32 34 38 44 50 55 64 69 75 76 77 80 82 83 87 90 93 96 94 91 80 72 62 59 66 63 60 58 55 54 55 53
22 22 22 23 25 26 26 26 26 25 26 27 27 30 40 42 52 59 64 70 72 75 77 80 84 86 88 89 92 94 91 87 77 66 65 61 65 62 62 59 58 56 53